2017-008BD

Last updated on Sat Apr 08 2017 00:17:57 GMT+0000 (Coordinated Universal Time)

1 41999U 17008BD 17096.89523773 .00003510 00000-0 15601-3 0 9990 2 41999 97.5043 158.4404 0010741 101.9233 258.3208 15.22141649 7000
UTC large
Height (km)
Speed (km/s)
/
Latitude / Longitude
Inclination (degrees)
Orbital Period (minutes)
Azimuth
Elevation
Range (km)
Doppler Factor

Next 0 passes for location: London (51.5072 / 0.1276)

Sorry there are no passes over London.